Flag for U.S.A. Weather past 2 weeks in Rochester, New York, U.S.A.

Now
75 °F

Scattered clouds.


Feels Like: 77 °F
Forecast: 66 / 82 °F
Wind: 5 mph from East

Location: Greater Rochester International Airport

Current Time: Jul 5, 2015 at 9:46:14 PM

Latest Report: Jul 5, 2015 at 8:54 PM


Visibility: 10 mi

Pressure: 30.12 "Hg

Humidity: 62%

Dew point: 61 °F

Location of RochesterLocation

Historic Weather in Rochester — Graph

°F

Rochester temperature yesterday

Maximum temperature yesterday: 77 °F (at 1:54 PM)
Minimum temperature yesterday: 60 °F (at 4:54 AM)
Average temperature yesterday: 68 °F

Past Weeks' High & Low Weather Summary

 TemperatureHumidityPressure
High83 °F (Jun 22, 4:54 PM)97% (Jul 1, 4:54 AM)30.15 "Hg (Jul 1, 4:54 AM)
Low51 °F (Jul 3, 3:54 AM)31% (Jun 24, 4:54 PM)29.67 "Hg (Jun 23, 6:54 AM)
Average67 °F71%29.93 "Hg
* Reported Jun 20 8:54 PM — Jul 5 8:54 PM, Rochester, Weather by CustomWeather, © 2015

Note: Actual official high and low records may vary slightly from our data, if they occured in-between our weather recording intervals... More about our weather records

Advertising

Rochester weather history for previous 24 hours

 ConditionsComfort  
Time TempWeatherWind HumidityBarometerVisibility
8:54 PM
Sun, Jul 5
75 °FScattered clouds.5 mph62%30.12 "Hg10 mi
7:54 PM77 °FScattered clouds.7 mph60%30.11 "Hg10 mi
6:54 PM80 °FPassing clouds.3 mph52%30.10 "Hg10 mi
5:54 PM80 °FPassing clouds.5 mph52%30.11 "Hg10 mi
4:54 PM81 °FPassing clouds.3 mph49%30.12 "Hg10 mi
3:54 PM80 °FScattered clouds.5 mph49%30.13 "Hg10 mi
2:54 PM81 °FPassing clouds.5 mph47%30.14 "Hg10 mi
1:54 PM79 °FPassing clouds.No wind50%30.14 "Hg10 mi
12:54 PM78 °FSunny.No wind52%30.15 "Hg10 mi
11:54 AM76 °FSunny.8 mph54%30.15 "Hg10 mi
10:54 AM74 °FSunny.3 mph62%30.14 "Hg10 mi
9:54 AM70 °FSunny.8 mph71%30.14 "Hg10 mi
8:54 AM67 °FSunny.7 mph76%30.15 "Hg10 mi
7:54 AM62 °FSunny.7 mph83%30.14 "Hg10 mi
6:54 AM59 °FSunny.3 mph87%30.12 "Hg10 mi
5:54 AM57 °FClear.5 mph90%30.09 "Hg9 mi
4:54 AM58 °FClear.7 mph90%30.07 "Hg10 mi
3:54 AM59 °FClear.8 mph87%30.06 "Hg10 mi
2:54 AM60 °FClear.8 mph83%30.06 "Hg10 mi
1:54 AM59 °FClear.6 mph87%30.06 "Hg10 mi
12:54 AM60 °FClear.6 mph80%30.05 "Hg10 mi
11:54 PM
Sat, Jul 4
61 °FClear.5 mph81%30.03 "Hg10 mi
10:54 PM62 °FClear.5 mph83%30.02 "Hg10 mi
9:54 PM65 °FClear.3 mph73%30.00 "Hg10 mi
Weather by CustomWeather, © 2015

See weather overviewHow to use our weather pages